• în Republica Moldova
  • Lista ţărilor
  • Pe 7 zile
  • Temperatura apei
  • Hartă satelitară
  • Meteo pe hartă
  • Widget-uri
  • user-avatar
    Intrare

    Meteo pe oră la Linz

    Astăzi, 21 Iulie, Vineri

    Timp Temperatura Precipitaţii Vânt Presiune Umiditate
    00:00 +20°C° 1 mm 1 m/s 733 mmHg 97%
    01:00 +19°C° 0 mm 1 m/s 733 mmHg 95%
    02:00 +18°C° 0 mm 1 m/s 733 mmHg 95%
    03:00 +18°C° 0 mm 1 m/s 733 mmHg 95%
    04:00 +18°C° 0 mm 1 m/s 733 mmHg 95%
    05:00 +19°C° 0 mm 1 m/s 733 mmHg 93%
    06:00 +18°C° 0 mm 0 m/s 733 mmHg 91%
    07:00 +19°C° 0 mm 0 m/s 734 mmHg 89%
    08:00 +23°C° 0 mm 1 m/s 734 mmHg 78%
    09:00 +26°C° 0 mm 1 m/s 734 mmHg 68%
    10:00 +28°C° 0 mm 1 m/s 733 mmHg 57%
    11:00 +29°C° 0 mm 1 m/s 733 mmHg 54%
    12:00 +30°C° 0 mm 2 m/s 733 mmHg 50%
    13:00 +30°C° 0 mm 2 m/s 732 mmHg 47%
    14:00 +30°C° 0 mm 2 m/s 732 mmHg 48%
    15:00 +30°C° 0 mm 3 m/s 732 mmHg 48%
    16:00 +30°C° 0 mm 3 m/s 732 mmHg 49%
    17:00 +29°C° 0 mm 3 m/s 732 mmHg 56%
    18:00 +27°C° 0 mm 3 m/s 731 mmHg 64%
    19:00 +26°C° 0 mm 3 m/s 731 mmHg 71%
    20:00 +24°C° 0,3 mm 3 m/s 731 mmHg 74%
    21:00 +23°C° 0,3 mm 2 m/s 731 mmHg 78%
    22:00 +21°C° 0,3 mm 2 m/s 731 mmHg 81%
    23:00 +20°C° 0 mm 2 m/s 731 mmHg 82%

    Mâine, 22 Iulie, Sâmbătă

    Timp Temperatura Precipitaţii Vânt Presiune Umiditate
    00:00 +20°C° 0 mm 2 m/s 731 mmHg 82%
    01:00 +20°C° 0 mm 2 m/s 731 mmHg 83%
    02:00 +19°C° 0 mm 2 m/s 731 mmHg 84%
    03:00 +20°C° 0 mm 1 m/s 731 mmHg 85%
    04:00 +19°C° 0 mm 1 m/s 731 mmHg 86%
    05:00 +20°C° 0,1 mm 1 m/s 731 mmHg 83%
    06:00 +22°C° 0,1 mm 1 m/s 732 mmHg 81%
    07:00 +23°C° 0,1 mm 1 m/s 732 mmHg 78%
    08:00 +24°C° 0 mm 1 m/s 732 mmHg 72%
    09:00 +26°C° 0 mm 1 m/s 732 mmHg 67%
    10:00 +28°C° 0 mm 2 m/s 732 mmHg 62%
    11:00 +28°C° 0,3 mm 2 m/s 732 mmHg 60%
    12:00 +29°C° 0,3 mm 2 m/s 732 mmHg 59%
    13:00 +30°C° 0,3 mm 2 m/s 732 mmHg 57%
    14:00 +30°C° 0,3 mm 2 m/s 732 mmHg 57%
    15:00 +30°C° 0,3 mm 2 m/s 732 mmHg 57%
    16:00 +30°C° 0,3 mm 2 m/s 732 mmHg 57%
    17:00 +29°C° 0,3 mm 1 m/s 732 mmHg 64%
    18:00 +27°C° 0,3 mm 1 m/s 732 mmHg 70%
    19:00 +26°C° 0,3 mm 1 m/s 732 mmHg 77%
    20:00 +25°C° 0,1 mm 1 m/s 732 mmHg 78%
    21:00 +24°C° 0,1 mm 1 m/s 733 mmHg 80%
    22:00 +23°C° 0,1 mm 1 m/s 733 mmHg 81%
    23:00 +22°C° 0,2 mm 1 m/s 733 mmHg 84%

    Poimâine, 23 Iulie, Duminică

    Timp Temperatura Precipitaţii Vânt Presiune Umiditate
    00:00 +22°C° 0,2 mm 1 m/s 733 mmHg 86%
    01:00 +21°C° 0,2 mm 1 m/s 733 mmHg 89%
    02:00 +21°C° 0,3 mm 1 m/s 733 mmHg 91%
    03:00 +21°C° 0,3 mm 1 m/s 733 mmHg 93%
    04:00 +20°C° 0,3 mm 1 m/s 733 mmHg 94%
    05:00 +21°C° 0,7 mm 1 m/s 733 mmHg 93%
    06:00 +22°C° 0,7 mm 1 m/s 733 mmHg 92%
    07:00 +22°C° 0,7 mm 1 m/s 733 mmHg 91%
    08:00 +24°C° 0,5 mm 1 m/s 733 mmHg 86%
    09:00 +25°C° 0,5 mm 2 m/s 733 mmHg 81%
    10:00 +26°C° 0,5 mm 3 m/s 733 mmHg 76%
    11:00 +26°C° 0,8 mm 3 m/s 733 mmHg 76%
    12:00 +26°C° 0,8 mm 3 m/s 733 mmHg 75%
    13:00 +26°C° 0,8 mm 3 m/s 733 mmHg 75%
    14:00 +26°C° 0,8 mm 3 m/s 733 mmHg 76%
    15:00 +26°C° 0,8 mm 3 m/s 733 mmHg 77%
    16:00 +26°C° 0,8 mm 3 m/s 733 mmHg 79%
    17:00 +25°C° 0,8 mm 2 m/s 733 mmHg 82%
    18:00 +24°C° 0,8 mm 2 m/s 733 mmHg 85%
    19:00 +23°C° 0,8 mm 1 m/s 733 mmHg 88%
    20:00 +22°C° 0,4 mm 1 m/s 733 mmHg 90%
    21:00 +21°C° 0,4 mm 1 m/s 733 mmHg 92%
    22:00 +20°C° 0,4 mm 1 m/s 733 mmHg 94%
    23:00 +20°C° 2 mm 1 m/s 733 mmHg 95%

    24 Iulie, Luni

    Timp Temperatura Precipitaţii Vânt Presiune Umiditate
    00:00 +20°C° 2 mm 1 m/s 733 mmHg 96%
    01:00 +19°C° 2 mm 1 m/s 733 mmHg 97%
    02:00 +19°C° 1,6 mm 1 m/s 733 mmHg 97%
    03:00 +17°C° 1,6 mm 0 m/s 732 mmHg 97%
    04:00 +17°C° 1,6 mm 0 m/s 732 mmHg 97%
    05:00 +17°C° 0,4 mm 0 m/s 731 mmHg 97%
    06:00 +19°C° 0,4 mm 1 m/s 731 mmHg 97%
    07:00 +19°C° 0,4 mm 1 m/s 731 mmHg 97%
    08:00 +19°C° 0,5 mm 1 m/s 730 mmHg 95%
    09:00 +20°C° 0,5 mm 1 m/s 730 mmHg 93%
    10:00 +20°C° 0,5 mm 1 m/s 729 mmHg 91%
    11:00 +19°C° 0,8 mm 2 m/s 729 mmHg 90%
    12:00 +19°C° 0,8 mm 2 m/s 728 mmHg 89%
    13:00 +20°C° 0,8 mm 2 m/s 728 mmHg 88%
    14:00 +19°C° 1,8 mm 2 m/s 728 mmHg 90%
    15:00 +19°C° 1,8 mm 2 m/s 728 mmHg 92%
    16:00 +19°C° 1,8 mm 3 m/s 728 mmHg 93%
    17:00 +18°C° 4,7 mm 3 m/s 728 mmHg 94%
    18:00 +17°C° 4,7 mm 3 m/s 728 mmHg 95%
    19:00 +15°C° 4,7 mm 4 m/s 728 mmHg 96%
    20:00 +14°C° 0,8 mm 3 m/s 728 mmHg 96%
    21:00 +14°C° 0,8 mm 3 m/s 729 mmHg 96%
    22:00 +14°C° 0,8 mm 3 m/s 729 mmHg 96%
    23:00 +14°C° 0,2 mm 3 m/s 729 mmHg 96%

    25 Iulie, Marţi

    Timp Temperatura Precipitaţii Vânt Presiune Umiditate
    00:00 +14°C° 0,2 mm 3 m/s 729 mmHg 96%
    01:00 +13°C° 0,2 mm 3 m/s 729 mmHg 96%
    02:00 +13°C° 0 mm 3 m/s 728 mmHg 96%
    03:00 +13°C° 0 mm 3 m/s 728 mmHg 96%
    04:00 +12°C° 0 mm 3 m/s 728 mmHg 96%
    05:00 +13°C° 0 mm 3 m/s 728 mmHg 94%
    06:00 +13°C° 0 mm 4 m/s 728 mmHg 92%
    07:00 +14°C° 0 mm 4 m/s 728 mmHg 90%
    08:00 +14°C° 0,2 mm 4 m/s 728 mmHg 88%
    09:00 +15°C° 0,2 mm 4 m/s 728 mmHg 85%
    10:00 +15°C° 0,2 mm 5 m/s 727 mmHg 83%
    11:00 +16°C° 0,2 mm 5 m/s 727 mmHg 79%
    12:00 +17°C° 0,2 mm 5 m/s 727 mmHg 75%
    13:00 +19°C° 0,2 mm 5 m/s 727 mmHg 71%
    14:00 +19°C° 0,3 mm 5 m/s 727 mmHg 73%
    15:00 +19°C° 0,3 mm 5 m/s 727 mmHg 76%
    16:00 +17°C° 0,3 mm 5 m/s 728 mmHg 78%
    17:00 +16°C° 0,3 mm 5 m/s 728 mmHg 83%
    18:00 +15°C° 0,3 mm 4 m/s 728 mmHg 88%
    19:00 +14°C° 0,3 mm 4 m/s 728 mmHg 92%
    20:00 +14°C° 0,3 mm 4 m/s 728 mmHg 93%
    21:00 +13°C° 0,3 mm 4 m/s 728 mmHg 94%
    22:00 +13°C° 0,3 mm 4 m/s 728 mmHg 95%
    23:00 +13°C° 0,6 mm 4 m/s 728 mmHg 95%

    26 Iulie, Miercuri

    Timp Temperatura Precipitaţii Vânt Presiune Umiditate
    00:00 +13°C° 0,6 mm 3 m/s 728 mmHg 95%
    01:00 +13°C° 0,6 mm 3 m/s 728 mmHg 96%
    02:00 +13°C° 0,7 mm 3 m/s 728 mmHg 96%
    03:00 +13°C° 0,7 mm 4 m/s 729 mmHg 96%
    04:00 +13°C° 0,7 mm 4 m/s 729 mmHg 96%
    05:00 +13°C° 0,6 mm 4 m/s 729 mmHg 95%
    06:00 +13°C° 0,6 mm 4 m/s 729 mmHg 95%
    07:00 +13°C° 0,6 mm 4 m/s 729 mmHg 95%
    08:00 +14°C° 0,6 mm 4 m/s 730 mmHg 94%
    09:00 +14°C° 0,6 mm 4 m/s 730 mmHg 93%
    10:00 +14°C° 0,6 mm 4 m/s 730 mmHg 92%
    11:00 +15°C° 0,2 mm 4 m/s 730 mmHg 88%
    12:00 +18°C° 0,2 mm 4 m/s 730 mmHg 83%
    13:00 +19°C° 0,2 mm 4 m/s 730 mmHg 79%
    14:00 +20°C° 0,2 mm 4 m/s 730 mmHg 75%
    15:00 +21°C° 0,2 mm 4 m/s 730 mmHg 70%
    16:00 +21°C° 0,2 mm 4 m/s 730 mmHg 66%
    17:00 +21°C° 0 mm 4 m/s 730 mmHg 70%
    18:00 +20°C° 0 mm 3 m/s 730 mmHg 75%
    19:00 +19°C° 0 mm 2 m/s 731 mmHg 79%
    20:00 +18°C° 0 mm 2 m/s 731 mmHg 83%
    21:00 +16°C° 0 mm 2 m/s 732 mmHg 87%
    22:00 +15°C° 0 mm 2 m/s 732 mmHg 91%
    23:00 +14°C° 0 mm 2 m/s 732 mmHg 91%
    Arată mai mult